Regional Weather Roundup
Issued by NWS

Home | Current Version | Previous Version | Text Only | Print | Product List | Glossary Off
Versions: 1 2 3 4 5 6 7 8 9 10 11 12 13 14 15 16 17 18 19 20 21 22 23 24 25 26 27 28 29 30 31 32 33 34 35 36 37 38 39 40 41 42 43 44 45 46 47 48 49 50

344
ASUS44 KLIX 060716
RWRLA
LOUISIANA WEATHER ROUNDUP
NATIONAL WEATHER SERVICE NEW ORLEANS LA
100 AM CST FRI MAR 06 2015

NOTE: "FAIR" INDICATES FEW OR NO CLOUDS BELOW 12,000 FEET WITH NO
      SIGNIFICANT WEATHER AND/OR OBSTRUCTIONS TO VISIBILITY.
      SKY/WX - SKY CONDITION AND SIGNIFICANT WEATHER.
      TMP - AIR TEMPERATURE.    DP   - DEWPOINT TEMPERATURE.
      RH  - RELATIVE HUMIDITY.  PRES - PRESSURE.
      HX  - HEAT INDEX.         WCI  - WIND CHILL INDEX.

*  THESE STATIONS ARE NOT NWS OR FAA STATIONS AND ARE NOT UNDER
   NWS QUALITY CONTROL.

LAZ040-048-061>063-065-066-069-060800-
SOUTHEAST LOUISIANA

CITY           SKY/WX    TMP DP  RH WIND       PRES   REMARKS
N.O. AUDUBON     N/A     35  27  70 MISG        N/A
N.O. INTL ARPT PTCLDY    34  24  67 N20G26    30.45S WCI  23
N.O. LAKEFRONT PTCLDY    36  26  67 N25G33    30.45F WCI  24
SLIDELL        PTCLDY    32  23  69 N13G22    30.44F WCI  22
BATON ROUGE    CLEAR     29  18  63 N8        30.50S WCI  21
BOOTHVILLE     CLOUDY    40  29  64 N14G25    30.39S WCI  32
BELLE CHASSE   PTCLDY    35  23  61 N9        30.43S WCI  28
BOGALUSA*        N/A     31  25  78 N9        30.48F WCI  23
GALLIANO*      MOSUNNY   38  26  63 N14G24    30.43R WCI  29
NEW ROADS*     FAIR      30  14  51 N10       30.52S WCI  21
GONZALES*      FAIR      31  23  72 N6        30.48F WCI  25
HAMMOND*       PTCLDY    30  21  69 N10       30.49S WCI  21
HOUMA*         PTCLDY    32  25  74 N15G21    30.44F WCI  22
PORT FOURCHON* CLOUDY    39  27  60 N21G29    30.44S WCI  29

$$

LAZ041-044-053-054-060800-
SOUTHWEST LOUISIANA

CITY           SKY/WX    TMP DP  RH WIND       PRES   REMARKS
LAKE CHARLES   CLEAR     33  20  58 NE9       30.53S WCI  25
LAFAYETTE      CLEAR     32  18  56 N14G25    30.50F WCI  22
PATTERSON      PTCLDY    32  19  59 N10       30.48S WCI  24
SALT POINT       N/A     33  20  58 N9G20     30.46S WCI  25
NEW IBERIA     NOT AVBL
CHENAULT AIRPK CLEAR     32  19  58 NE10      30.54S WCI  24

$$

LAZ027-028-060800-
CENTRAL LOUISIANA

CITY           SKY/WX    TMP DP  RH WIND       PRES   REMARKS
FORT POLK      PTCLDY    29  19  65 N6        30.53S WCI  23
ALEXANDRIA INT PTCLDY    29  19  66 N6        30.54F WCI  23
ALEXANDRIA     PTCLDY    31  18  58 VRB5      30.54F WCI  26

$$

LAZ001-002-060800-
NORTHWEST LOUISIANA

CITY           SKY/WX    TMP DP  RH WIND       PRES   REMARKS
SHREVEPORT     PTCLDY    28  21  75 CALM      30.57R
BARKSDALE AFB  CLEAR     26  23  87 CALM      30.58R
DTN SHREVEPORT CLEAR     27  22  81 CALM      30.58S

$$

LAZ014-016-060800-
NORTHEAST LOUISIANA

CITY           SKY/WX    TMP DP  RH WIND       PRES   REMARKS
MONROE         CLEAR     25  19  78 N5        30.58F WCI  19
TALLULAH       CLEAR     27  15  61 N9        30.56F WCI  18

$$




USA.gov is the U.S. government's official web portal to all federal, state and local government web resources and services.